Location: Unspecified
(43.3830°N, 0.0000°E)
Time: 18:06:44
(UTC+00:00)

Explorer 7 - Pass Details

Date: 26 June 2019
Orbit: 485 x 680 km, 50.3° (Epoch: 20 August)

Event Time Altitude Azimuth Distance (km) Brightness Sun altitude
Rises 07:18:19 0° 233° (SW) 2,673 9.9 29.2°
Reaches altitude 10° 07:20:28 10° 232° (SW) 1,814 9.1 29.6°
Maximum altitude 07:24:36 75° 147° (SSE) 598 7.6 30.4°
Drops below altitude 10° 07:29:02 10° 63° (ENE) 1,948 10.8 31.2°
Sets 07:31:25 0° 61° (ENE) 2,889 11.4 31.6°
